GW3047 Weather Reports


Display with metric or nautical units.
time (UTC)temp
F
wind
direction
speed
MPH
gust
MPH
rain 1hr
in
rain 24hr
in
rain mn
in
humidity
%
barometer
mb
20260831191602 94 99 0.0 6.0 0.00 0.01 0.01 36 1016.6
20260831190111 94 42 1.0 5.0 0.00 0.01 0.01 40 1016.6
20260831184618 92 91 0.0 4.0 0.00 0.01 0.01 39 1016.8
20260831183108 91 201 3.0 6.0 0.00 0.01 0.01 39 1016.7
20260831181607 90 337 1.0 5.0 0.00 0.01 0.01 43 1016.8
20260831180111 89 256 2.0 8.0 0.00 0.01 0.01 43 1017.0
20260831174606 90 310 2.0 5.0 0.00 0.01 0.01 44 1017.2
20260831173104 89 303 1.0 5.0 0.00 0.01 0.01 47 1017.1
20260831171606 88 335 2.0 7.0 0.00 0.01 0.01 48 1017.2
20260831170131 87 352 1.0 8.0 0.00 0.01 0.01 50 1017.2
20260831164605 86 239 2.0 7.0 0.00 0.01 0.01 49 1017.1
20260831163102 86 352 2.0 10.0 0.00 0.01 0.01 50 1017.1
20260831161615 86 247 1.0 7.0 0.00 0.01 0.01 46 1016.7
20260831160106 84 328 2.0 4.0 0.00 0.01 0.01 47 1016.5
20260831154632 83 238 2.0 7.0 0.00 0.01 0.01 49 1016.4
20260831153107 82 260 2.0 6.0 0.00 0.01 0.01 50 1016.4
20260831151611 81 215 1.0 8.0 0.00 0.01 0.01 53 1016.3
20260831150110 81 206 4.0 7.0 0.00 0.01 0.01 53 1016.3
20260831144605 79 151 1.0 10.0 0.00 0.01 0.01 57 1016.3
20260831143107 78 205 1.0 9.0 0.00 0.01 0.01 59 1016.3
20260831141611 76 109 1.0 4.0 0.00 0.01 0.01 66 1016.2
20260831140107 73 192 2.0 5.0 0.00 0.01 0.01 71 1016.4
20260831134607 72 123 1.0 4.0 0.00 0.01 0.01 79 1016.2
20260831133106 71 68 1.0 9.0 0.00 0.01 0.01 81 1015.8
20260831131608 70 118 1.0 6.0 0.00 0.01 0.01 82 1015.8
20260831130109 70 94 1.0 7.0 0.00 0.01 0.01 81 1015.9
20260831124605 71 64 3.0 9.0 0.00 0.01 0.01 80 1015.7
20260831123102 70 112 2.0 12.0 0.00 0.01 0.01 79 1015.5
20260831121604 71 64 3.0 9.0 0.00 0.01 0.01 77 1015.3
20260831120117 71 0 1.0 4.0 0.00 0.01 0.01 77 1015.4
20260831114609 71 68 2.0 9.0 0.00 0.01 0.01 76 1015.4
20260831113111 71 67 3.0 10.0 0.00 0.01 0.01 75 1015.6
20260831111616 71 79 4.0 10.0 0.00 0.01 0.01 75 1015.9
20260831110107 72 79 4.0 10.0 0.00 0.01 0.01 75 1016.1
20260831104604 71 43 1.0 8.0 0.00 0.01 0.01 77 1016.2
20260831103118 71 39 2.0 6.0 0.00 0.01 0.01 77 1016.3
20260831101608 71 35 2.0 7.0 0.00 0.01 0.01 77 1016.4
20260831100106 71 1 0.0 5.0 0.00 0.01 0.01 76 1016.5
20260831094607 71 65 1.0 6.0 0.00 0.01 0.01 76 1016.3
20260831093106 71 46 1.0 4.0 0.01 0.01 0.01 74 1016.3
20260831091615 71 341 1.0 9.0 0.01 0.01 0.01 72 1016.3
20260831090114 72 0 2.0 11.0 0.01 0.01 0.01 70 1015.9
20260831084604 73 10 3.0 14.0 0.01 0.01 0.01 69 1015.8
20260831083104 74 345 6.0 15.0 0.00 0.00 0.00 66 1015.9
20260831081602 75 340 3.0 15.0 0.00 0.00 0.00 70 1015.7
20260831080113 76 352 2.0 5.0 0.00 0.00 0.00 64 1015.5
20260831074611 76 0 0.0 1.0 0.00 0.00 0.00 64 1014.7
20260831073107 76 0 1.0 4.0 0.00 0.00 0.00 64 1014.6
20260831071604 76 58 0.0 1.0 0.00 0.00 0.00 66 1014.6
20260831070106 76 0 1.0 3.0 0.00 0.00 0.00 66 1014.7
20260831064606 76 56 1.0 3.0 0.00 0.00 0.00 69 1014.6
20260831063103 76 43 1.0 3.0 0.00 0.00 0.00 69 1014.5
20260831061613 77 0 0.0 2.0 0.00 0.00 0.00 67 1014.7
20260831060117 77 341 0.0 3.0 0.00 0.00 0.00 66 1014.7
20260831054627 77 59 2.0 4.0 0.00 0.00 0.00 65 1014.6
20260831053114 78 59 1.0 4.0 0.00 0.00 0.00 65 1014.9
20260831051603 78 52 0.0 3.0 0.00 0.00 0.00 65 1015.0
20260831050117 79 0 1.0 5.0 0.00 0.00 0.00 64 1014.9
20260831044607 79 350 1.0 8.0 0.00 0.00 0.00 63 1015.3
20260831043104 79 352 3.0 18.0 0.00 0.00 0.00 64 1015.2
20260831041629 81 0 0.0 6.0 0.00 0.00 0.00 56 1014.9
20260831040105 81 66 1.0 9.0 0.00 0.00 0.00 56 1014.4
20260831034606 83 1 2.0 13.0 0.00 0.00 0.00 50 1013.9
20260831033107 84 162 5.0 15.0 0.00 0.00 0.00 48 1013.3
20260831031612 86 31 4.0 12.0 0.00 0.00 0.00 47 1012.8
20260831030120 87 52 1.0 9.0 0.00 0.00 0.00 43 1012.3
20260831024608 87 53 4.0 11.0 0.00 0.00 0.00 41 1011.9
20260831023109 88 55 3.0 6.0 0.00 0.00 0.00 38 1012.2
20260831021604 89 0 0.0 4.0 0.00 0.00 0.00 38 1011.8
20260831020113 90 137 0.0 1.0 0.00 0.00 0.00 37 1011.6
20260831014607 91 0 0.0 1.0 0.00 0.00 0.00 37 1011.7
20260831013107 91 0 0.0 1.0 0.00 0.00 0.00 35 1011.7
20260831011609 92 0 0.0 1.0 0.00 0.00 0.00 37 1011.8
20260831010107 94 0 0.0 1.0 0.00 0.00 0.00 34 1011.7
20260831004606 95 0 0.0 1.0 0.00 0.00 0.00 31 1011.8
20260831003121 97 0 0.0 1.0 0.00 0.00 0.00 29 1011.8
20260831001605 99 0 0.0 2.0 0.00 0.00 0.00 27 1011.8
20260831000109 99 137 0.0 3.0 0.00 0.00 0.00 26 1011.8
20260830234607 101 158 0.0 3.0 0.00 0.00 0.00 26 1011.8
20260830233106 101 158 1.0 3.0 0.00 0.00 0.00 25 1011.8
20260830231606 100 0 0.0 3.0 0.00 0.00 0.00 26 1011.7
20260830230105 100 70 1.0 3.0 0.00 0.00 0.00 26 1011.7
20260830224609 100 0 1.0 3.0 0.00 0.00 0.00 26 1011.7
20260830223108 100 351 1.0 7.0 0.00 0.00 0.00 24 1011.8
20260830221627 101 288 2.0 6.0 0.00 0.00 0.00 24 1011.8
20260830220112 102 219 4.0 13.0 0.00 0.00 0.00 24 1011.8
20260830214607 102 207 3.0 7.0 0.00 0.00 0.00 22 1012.0
20260830213106 103 346 0.0 5.0 0.00 0.00 0.00 23 1012.1
20260830211606 103 345 0.0 3.0 0.00 0.00 0.00 23 1012.2
20260830210105 102 1 1.0 3.0 0.00 0.00 0.00 23 1012.3
20260830204608 102 147 2.0 6.0 0.00 0.00 0.00 23 1012.6
20260830203105 102 180 1.0 4.0 0.00 0.00 0.00 22 1012.7
20260830201635 102 197 1.0 3.0 0.00 0.00 0.00 24 1012.9
20260830200113 101 37 1.0 4.0 0.00 0.00 0.00 27 1013.0
20260830194615 99 288 2.0 5.0 0.00 0.00 0.00 27 1013.0
20260830193112 99 58 1.0 4.0 0.00 0.00 0.00 27 1013.2